Station Historical Data
Daily Summary for September 14, 2017 Units:  English    Metric   Both
« Previous Day
Next Day »
Daily Weekly Monthly Yearly Custom
  High: Low: Average:
Temperature: 66.0 °F 40.3 °F 51.8 °F
Dew Point: 42.3 °F 32.8 °F 37.4 °F
Humidity: 77% 36% 60%
Wind Speed: 9.4mph 0.0mph 0.7mph
Wind Gust: 10.4mph - -
Wind- - SE
Pressure: 30.07 in 29.92 in -
Precipitation: 0.06 in    
Historical Graphs
 
 
Tabular Data for September 14, 2017
Time Temperature Dew Point Pressure Wind Wind Speed Wind Gust Humidity Rainfall Rate (Hourly) solar Conditions
00:02 43.5 °F 33.7 °F 29.93 in Calm     68% 0.00 in 0.0 W/m2 CLR
00:07 43.2 °F 33.3 °F 29.94 in Calm     68% 0.00 in 0.0 W/m2 CLR
00:12 42.4 °F 33.3 °F 29.93 in Calm     70% 0.00 in 0.0 W/m2 CLR
00:17 42.3 °F 33.2 °F 29.93 in Calm     70% 0.00 in 0.0 W/m2 CLR
00:22 42.1 °F 33.4 °F 29.94 in Calm     71% 0.00 in 0.0 W/m2 CLR
00:27 42.3 °F 33.5 °F 29.94 in Calm     71% 0.00 in 0.0 W/m2 CLR
00:32 42.4 °F 33.7 °F 29.94 in Calm     71% 0.00 in 0.0 W/m2 CLR
00:37 42.1 °F 33.4 °F 29.94 in Calm     71% 0.00 in 0.0 W/m2 CLR
00:42 41.7 °F 33.4 °F 29.94 in Calm     72% 0.00 in 0.0 W/m2 CLR
00:47 41.7 °F 33.4 °F 29.94 in Calm     72% 0.00 in 0.0 W/m2 CLR
00:52 41.7 °F 33.0 °F 29.94 in Calm     71% 0.00 in 0.0 W/m2 CLR
00:57 41.9 °F 33.2 °F 29.94 in Calm     71% 0.00 in 0.0 W/m2 CLR
01:02 42.1 °F 33.4 °F 29.94 in Calm     71% 0.00 in 0.0 W/m2 CLR
01:07 41.4 °F 33.0 °F 29.94 in Calm     72% 0.00 in 0.0 W/m2 CLR
01:10 41.2 °F 32.8 °F 29.94 in Calm     72% 0.00 in 0.0 W/m2 CLR
01:15 41.0 °F 33.0 °F 29.94 in Calm     73% 0.00 in 0.0 W/m2 CLR
01:20 41.2 °F 33.2 °F 29.94 in Calm     73% 0.00 in 0.0 W/m2 CLR
01:25 41.4 °F 33.0 °F 29.94 in Calm     72% 0.00 in 0.0 W/m2 CLR
01:30 41.2 °F 32.8 °F 29.94 in Calm     72% 0.00 in 0.0 W/m2 CLR
01:35 40.8 °F 32.8 °F 29.94 in Calm     73% 0.00 in 0.0 W/m2 CLR
01:40 40.8 °F 32.8 °F 29.94 in Calm     73% 0.00 in 0.0 W/m2 CLR
01:45 40.8 °F 32.8 °F 29.94 in Calm     73% 0.00 in 0.0 W/m2 CLR
01:50 41.0 °F 33.3 °F 29.94 in Calm     74% 0.00 in 0.0 W/m2 CLR
01:55 41.0 °F 33.3 °F 29.94 in Calm     74% 0.00 in 0.0 W/m2 CLR
02:00 41.0 °F 33.0 °F 29.93 in Calm     73% 0.00 in 0.0 W/m2 CLR
02:05 40.8 °F 32.8 °F 29.93 in Calm     73% 0.00 in 0.0 W/m2 CLR
02:10 41.0 °F 33.3 °F 29.93 in Calm     74% 0.00 in 0.0 W/m2 CLR
02:12 41.0 °F 33.3 °F 29.93 in Calm     74% 0.00 in 0.0 W/m2 CLR
02:17 40.8 °F 33.5 °F 29.93 in Calm     75% 0.00 in 0.0 W/m2 CLR
02:22 40.8 °F 33.5 °F 29.93 in Calm     75% 0.00 in 0.0 W/m2 CLR
02:27 40.8 °F 33.5 °F 29.93 in Calm     75% 0.00 in 0.0 W/m2 CLR
02:32 40.8 °F 33.5 °F 29.93 in Calm     75% 0.00 in 0.0 W/m2 CLR
02:37 40.8 °F 33.5 °F 29.93 in Calm     75% 0.00 in 0.0 W/m2 CLR
02:42 40.8 °F 33.5 °F 29.93 in Calm     75% 0.00 in 0.0 W/m2 CLR
02:47 40.8 °F 33.5 °F 29.93 in Calm     75% 0.00 in 0.0 W/m2 CLR
02:52 40.8 °F 33.5 °F 29.93 in Calm     75% 0.00 in 0.0 W/m2 CLR
02:57 40.8 °F 33.5 °F 29.93 in Calm     75% 0.00 in 0.0 W/m2 CLR
03:02 40.6 °F 33.3 °F 29.93 in Calm     75% 0.00 in 0.0 W/m2 CLR
03:07 40.6 °F 33.3 °F 29.93 in Calm     75% 0.00 in 0.0 W/m2 CLR
03:12 40.3 °F 33.3 °F 29.93 in Calm     76% 0.00 in 0.0 W/m2 CLR
03:17 40.5 °F 33.5 °F 29.93 in Calm     76% 0.00 in 0.0 W/m2 CLR
03:22 40.5 °F 33.5 °F 29.93 in Calm     76% 0.00 in 0.0 W/m2 CLR
03:27 40.6 °F 33.7 °F 29.93 in Calm     76% 0.00 in 0.0 W/m2 CLR
03:32 40.8 °F 33.8 °F 29.93 in Calm     76% 0.00 in 0.0 W/m2 CLR
03:37 40.8 °F 33.8 °F 29.93 in Calm     76% 0.00 in 0.0 W/m2 CLR
03:42 40.8 °F 33.8 °F 29.93 in Calm     76% 0.00 in 0.0 W/m2 CLR
03:47 41.2 °F 34.2 °F 29.93 in Calm     76% 0.00 in 0.0 W/m2 CLR
03:52 41.2 °F 33.9 °F 29.93 in Calm     75% 0.00 in 0.0 W/m2 CLR
03:57 41.4 °F 34.0 °F 29.92 in Calm     75% 0.00 in 0.0 W/m2 CLR
04:02 41.4 °F 34.0 °F 29.92 in Calm     75% 0.00 in 0.0 W/m2 CLR
04:07 41.4 °F 34.0 °F 29.92 in Calm     75% 0.00 in 0.0 W/m2 CLR
04:12 41.2 °F 34.2 °F 29.93 in Calm     76% 0.00 in 0.0 W/m2 CLR
04:17 40.6 °F 33.7 °F 29.93 in Calm     76% 0.00 in 0.0 W/m2 CLR
04:22 40.6 °F 34.0 °F 29.93 in Calm     77% 0.00 in 0.0 W/m2 CLR
04:27 40.6 °F 34.0 °F 29.94 in Calm     77% 0.00 in 0.0 W/m2 CLR
04:32 40.8 °F 34.2 °F 29.93 in Calm     77% 0.00 in 0.0 W/m2 CLR
04:37 41.0 °F 34.0 °F 29.93 in Calm     76% 0.00 in 0.0 W/m2 CLR
04:42 41.2 °F 34.2 °F 29.94 in Calm     76% 0.00 in 0.0 W/m2 CLR
04:47 41.2 °F 34.2 °F 29.94 in Calm     76% 0.00 in 0.0 W/m2 CLR
04:52 41.4 °F 34.4 °F 29.94 in Calm     76% 0.00 in 0.0 W/m2 CLR
04:57 41.4 °F 34.4 °F 29.94 in Calm     76% 0.00 in 0.0 W/m2 CLR
05:02 41.4 °F 34.0 °F 29.93 in Calm     75% 0.00 in 0.0 W/m2 CLR
05:07 41.2 °F 34.2 °F 29.93 in Calm     76% 0.00 in 0.0 W/m2 CLR
05:12 41.0 °F 34.0 °F 29.94 in Calm     76% 0.00 in 0.0 W/m2 CLR
05:17 40.8 °F 34.2 °F 29.94 in Calm     77% 0.00 in 0.0 W/m2 CLR
05:22 40.8 °F 34.2 °F 29.94 in Calm     77% 0.00 in 0.0 W/m2 CLR
05:27 40.8 °F 34.2 °F 29.94 in Calm     77% 0.00 in 0.0 W/m2 CLR
05:32 41.0 °F 34.3 °F 29.94 in Calm     77% 0.00 in 0.0 W/m2 CLR
05:37 41.2 °F 34.2 °F 29.94 in Calm     76% 0.00 in 0.0 W/m2 CLR
05:42 41.2 °F 34.2 °F 29.94 in Calm     76% 0.00 in 0.0 W/m2 CLR
05:47 41.2 °F 34.2 °F 29.94 in Calm     76% 0.00 in 0.0 W/m2 CLR
05:52 41.2 °F 34.2 °F 29.94 in Calm     76% 0.00 in 0.0 W/m2 CLR
05:57 41.0 °F 34.0 °F 29.94 in Calm     76% 0.00 in 0.0 W/m2 CLR
06:02 40.8 °F 33.8 °F 29.94 in Calm     76% 0.00 in 0.0 W/m2 CLR
06:07 40.8 °F 33.8 °F 29.94 in Calm     76% 0.00 in 0.0 W/m2 CLR
06:12 40.8 °F 33.5 °F 29.94 in Calm     75% 0.00 in 0.0 W/m2 CLR
06:17 40.8 °F 33.5 °F 29.94 in Calm     75% 0.00 in 0.0 W/m2 CLR
06:22 40.8 °F 33.5 °F 29.94 in Calm     75% 0.00 in 0.0 W/m2 CLR
06:27 41.0 °F 33.7 °F 29.94 in Calm     75% 0.00 in 0.0 W/m2 CLR
06:32 40.8 °F 33.5 °F 29.94 in Calm     75% 0.00 in 0.0 W/m2 CLR
06:37 40.8 °F 33.8 °F 29.94 in Calm     76% 0.00 in 0.0 W/m2 CLR
06:42 41.0 °F 34.0 °F 29.94 in Calm     76% 0.00 in 0.0 W/m2 CLR
06:47 41.0 °F 34.0 °F 29.94 in Calm     76% 0.00 in 0.0 W/m2 CLR
06:52 41.0 °F 34.0 °F 29.94 in Calm     76% 0.00 in 0.0 W/m2 CLR
06:57 40.8 °F 34.2 °F 29.95 in Calm     77% 0.00 in 0.0 W/m2 CLR
07:02 40.8 °F 34.2 °F 29.95 in Calm     77% 0.00 in 0.0 W/m2 CLR
07:07 40.8 °F 34.2 °F 29.95 in Calm     77% 0.00 in 0.0 W/m2 CLR
07:12 41.2 °F 34.5 °F 29.95 in Calm     77% 0.00 in 0.0 W/m2 CLR
07:17 41.2 °F 34.5 °F 29.95 in Calm     77% 0.00 in 0.0 W/m2 CLR
07:22 41.7 °F 35.0 °F 29.95 in Calm     77% 0.00 in 0.0 W/m2 CLR
07:27 42.1 °F 35.4 °F 29.95 in Calm     77% 0.00 in 0.0 W/m2 CLR
07:32 42.4 °F 35.4 °F 29.95 in Calm     76% 0.00 in 0.0 W/m2 CLR
07:37 42.6 °F 35.2 °F 29.95 in Calm     75% 0.00 in 0.0 W/m2 CLR
07:42 42.6 °F 35.2 °F 29.95 in Calm     75% 0.00 in 0.0 W/m2 CLR
07:47 43.0 °F 35.3 °F 29.96 in Calm     74% 0.00 in 0.0 W/m2 CLR
07:52 43.2 °F 35.4 °F 29.96 in Calm     74% 0.00 in 0.0 W/m2 CLR
07:57 43.3 °F 35.6 °F 29.96 in Calm     74% 0.00 in 0.0 W/m2 CLR
07:58 43.3 °F 35.6 °F 29.96 in Calm     74% 0.00 in 0.0 W/m2 CLR
08:03 43.5 °F 35.8 °F 29.96 in Calm     74% 0.00 in 0.0 W/m2 CLR
08:08 43.7 °F 36.0 °F 29.96 in Calm     74% 0.00 in 0.0 W/m2 CLR
08:13 43.7 °F 36.0 °F 29.96 in Calm     74% 0.00 in 0.0 W/m2 CLR
08:18 44.1 °F 36.0 °F 29.96 in Calm     73% 0.00 in 0.0 W/m2 CLR
08:23 44.2 °F 36.1 °F 29.97 in Calm     73% 0.00 in 0.0 W/m2 CLR
08:28 44.2 °F 36.1 °F 29.97 in Calm     73% 0.00 in 0.0 W/m2 CLR
08:33 44.2 °F 36.1 °F 29.97 in Calm     73% 0.00 in 0.0 W/m2 CLR
08:38 44.2 °F 36.1 °F 29.97 in Calm     73% 0.00 in 0.0 W/m2 CLR
08:43 44.6 °F 36.5 °F 29.97 in Calm     73% 0.00 in 0.0 W/m2 CLR
08:48 44.6 °F 36.5 °F 29.97 in Calm     73% 0.00 in 0.0 W/m2 CLR
08:53 44.8 °F 36.7 °F 29.97 in Calm     73% 0.00 in 0.0 W/m2 CLR
08:58 45.1 °F 37.0 °F 29.97 in Calm     73% 0.00 in 0.0 W/m2 CLR
09:03 45.3 °F 37.2 °F 29.97 in Calm     73% 0.00 in 0.0 W/m2 CLR
09:08 45.5 °F 37.3 °F 29.98 in Calm     73% 0.00 in 0.0 W/m2 CLR
09:13 45.7 °F 37.2 °F 29.98 in Calm     72% 0.00 in 0.0 W/m2 CLR
09:18 45.9 °F 37.3 °F 29.98 in Calm     72% 0.00 in 0.0 W/m2 CLR
09:23 46.0 °F 37.5 °F 29.98 in Calm     72% 0.00 in 0.0 W/m2 CLR
09:24 46.2 °F 37.7 °F 29.98 in Calm     72% 0.00 in 0.0 W/m2 CLR
09:29 46.6 °F 38.0 °F 29.98 in Calm     72% 0.00 in 0.0 W/m2 CLR
09:34 46.8 °F 37.9 °F 29.98 in ESE 0.9 mph 2.3 mph 71% 0.00 in 0.0 W/m2 CLR
09:39 46.9 °F 38.0 °F 29.98 in ESE 0.8 mph   71% 0.00 in 0.0 W/m2 CLR
09:44 47.3 °F 38.4 °F 29.98 in Calm     71% 0.00 in 0.0 W/m2 CLR
09:49 47.7 °F 38.7 °F 29.98 in Calm     71% 0.00 in 0.0 W/m2 CLR
09:54 47.8 °F 38.5 °F 29.98 in Calm     70% 0.00 in 0.0 W/m2 CLR
09:59 48.6 °F 39.2 °F 29.98 in Calm     70% 0.00 in 0.0 W/m2 CLR
10:04 48.7 °F 39.4 °F 29.98 in Calm     70% 0.00 in 0.0 W/m2 CLR
10:09 49.3 °F 39.2 °F 29.97 in Calm     68% 0.00 in 0.0 W/m2 CLR
10:14 49.8 °F 39.3 °F 29.98 in Calm     67% 0.00 in 0.0 W/m2 CLR
10:19 50.2 °F 38.9 °F 29.98 in Calm     65% 0.00 in 0.0 W/m2 CLR
10:24 50.5 °F 39.2 °F 29.98 in Calm     65% 0.00 in 0.0 W/m2 CLR
10:29 50.9 °F 39.1 °F 29.99 in Calm     64% 0.00 in 0.0 W/m2 CLR
10:34 51.4 °F 38.8 °F 29.99 in Calm     62% 0.00 in 0.0 W/m2 CLR
10:39 52.0 °F 39.4 °F 29.99 in Calm     62% 0.00 in 0.0 W/m2 CLR
10:44 52.5 °F 39.0 °F 29.98 in Calm     60% 0.00 in 0.0 W/m2 CLR
10:49 53.2 °F 38.8 °F 29.98 in Calm     58% 0.00 in 0.0 W/m2 CLR
10:54 53.4 °F 38.6 °F 29.98 in Calm     57% 0.00 in 0.0 W/m2 CLR
10:59 54.1 °F 39.2 °F 29.99 in Calm     57% 0.00 in 0.0 W/m2 CLR
11:04 54.7 °F 39.3 °F 29.99 in Calm     56% 0.00 in 0.0 W/m2 FEW
11:09 55.2 °F 39.8 °F 29.99 in Calm     56% 0.00 in 0.0 W/m2 FEW
11:14 55.8 °F 39.8 °F 29.99 in Calm     55% 0.00 in 0.0 W/m2 FEW
11:19 56.1 °F 39.7 °F 29.98 in Calm     54% 0.00 in 0.0 W/m2 FEW
11:24 56.5 °F 39.5 °F 29.98 in Calm     53% 0.00 in 0.0 W/m2 FEW
11:29 56.8 °F 39.4 °F 29.98 in Calm     52% 0.00 in 0.0 W/m2 FEW
11:30 57.0 °F 39.6 °F 29.98 in Calm     52% 0.00 in 0.0 W/m2 FEW
11:35 57.2 °F 39.7 °F 29.98 in Calm     52% 0.00 in 0.0 W/m2 FEW
11:40 57.4 °F 39.4 °F 29.98 in Calm     51% 0.00 in 0.0 W/m2 FEW
11:45 57.7 °F 39.2 °F 29.98 in Calm     50% 0.00 in 0.0 W/m2 FEW
11:50 57.9 °F 39.4 °F 29.98 in Calm     50% 0.00 in 0.0 W/m2 FEW
11:55 58.1 °F 39.0 °F 29.98 in ESE 0.8 mph 1.3 mph 49% 0.00 in 0.0 W/m2 FEW
12:00 58.1 °F 39.0 °F 29.98 in Calm     49% 0.00 in 0.0 W/m2 FEW
12:06 57.9 °F 38.9 °F 29.98 in Calm     49% 0.00 in 0.0 W/m2 CLR
12:11 58.5 °F 39.4 °F 29.98 in Calm     49% 0.00 in 0.0 W/m2 CLR
12:16 58.6 °F 39.5 °F 29.98 in ESE 2.2 mph 2.3 mph 49% 0.00 in 0.0 W/m2 CLR
12:21 58.8 °F 39.7 °F 29.99 in Calm     49% 0.00 in 0.0 W/m2 CLR
12:26 59.0 °F 39.9 °F 29.99 in Calm     49% 0.00 in 0.0 W/m2 CLR
12:31 59.5 °F 40.3 °F 29.99 in Calm     49% 0.00 in 0.0 W/m2 CLR
12:36 60.1 °F 40.8 °F 29.99 in Calm     49% 0.00 in 0.0 W/m2 CLR
12:41 60.6 °F 40.8 °F 29.99 in Calm     48% 0.00 in 0.0 W/m2 CLR
12:46 61.0 °F 40.6 °F 29.99 in Calm     47% 0.00 in 0.0 W/m2 CLR
12:51 61.5 °F 40.5 °F 29.99 in Calm     46% 0.00 in 0.0 W/m2 CLR
12:56 62.2 °F 40.6 °F 29.99 in Calm     45% 0.00 in 0.0 W/m2 CLR
13:01 62.8 °F 41.1 °F 29.99 in Calm     45% 0.00 in 0.0 W/m2 CLR
13:06 63.7 °F 40.8 °F 29.98 in SE 4.9 mph 6.3 mph 43% 0.00 in 0.0 W/m2 CLR
13:11 64.0 °F 40.5 °F 29.99 in East 0.2 mph 10.4 mph 42% 0.00 in 0.0 W/m2 CLR
13:16 64.2 °F 40.6 °F 29.99 in Calm     42% 0.00 in 0.0 W/m2 CLR
13:21 64.6 °F 40.3 °F 29.99 in ENE 7.2 mph 7.2 mph 41% 0.00 in 0.0 W/m2 CLR
13:26 64.6 °F 40.3 °F 29.98 in Calm   3.6 mph 41% 0.00 in 0.0 W/m2 CLR
13:31 64.2 °F 40.0 °F 29.99 in Calm     41% 0.00 in 0.0 W/m2 CLR
13:36 64.6 °F 40.3 °F 29.99 in SE 4.3 mph 4.6 mph 41% 0.00 in 0.0 W/m2 CLR
13:41 64.8 °F 40.5 °F 29.98 in SSE 4.7 mph 4.7 mph 41% 0.00 in 0.0 W/m2 CLR
13:46 64.8 °F 39.9 °F 29.99 in SSW 1.3 mph 1.3 mph 40% 0.00 in 0.0 W/m2 CLR
13:51 64.9 °F 40.0 °F 29.99 in ESE 2.3 mph 3.5 mph 40% 0.00 in 0.0 W/m2 CLR
13:56 64.6 °F 39.7 °F 29.98 in Calm     40% 0.00 in 0.0 W/m2 CLR
14:01 64.6 °F 39.7 °F 29.98 in SE 2.4 mph 2.4 mph 40% 0.00 in 0.0 W/m2 CLR
14:06 64.6 °F 39.7 °F 29.98 in East 6.7 mph 8.1 mph 40% 0.00 in 0.0 W/m2 CLR
14:08 64.6 °F 39.7 °F 29.98 in ESE 0.1 mph 4.6 mph 40% 0.00 in 0.0 W/m2 CLR
14:12 64.4 °F 39.5 °F 29.98 in Calm     40% 0.00 in 0.0 W/m2 CLR
14:17 64.2 °F 39.4 °F 29.99 in ESE 3.7 mph 4.6 mph 40% 0.00 in 0.0 W/m2 CLR
14:22 64.0 °F 39.8 °F 29.99 in Calm     41% 0.00 in 0.0 W/m2 CLR
14:27 64.0 °F 39.8 °F 29.99 in ESE 4.1 mph 4.1 mph 41% 0.00 in 0.0 W/m2 CLR
14:32 63.9 °F 39.7 °F 29.99 in SE 0.7 mph 4.6 mph 41% 0.00 in 0.0 W/m2 CLR
14:37 64.0 °F 39.8 °F 29.99 in Calm     41% 0.00 in 0.0 W/m2 CLR
14:42 64.2 °F 39.4 °F 29.98 in South 2.3 mph 6.9 mph 40% 0.00 in 0.0 W/m2 CLR
14:47 64.8 °F 39.2 °F 29.98 in ESE 3.6 mph 6.9 mph 39% 0.00 in 0.0 W/m2 CLR
14:52 64.9 °F 38.7 °F 29.99 in ESE 8.7 mph 9.2 mph 38% 0.00 in 0.0 W/m2 CLR
14:57 65.5 °F 39.2 °F 29.98 in ESE 6.9 mph 6.9 mph 38% 0.00 in 0.0 W/m2 CLR
15:02 66.0 °F 39.0 °F 29.98 in ESE 7.4 mph 7.4 mph 37% 0.00 in 0.0 W/m2 CLR
15:07 65.8 °F 38.8 °F 29.98 in East 9.4 mph 9.4 mph 37% 0.00 in 0.0 W/m2 CLR
15:12 65.3 °F 38.3 °F 29.98 in ESE 6.8 mph 6.9 mph 37% 0.00 in 0.0 W/m2 CLR
15:17 65.5 °F 38.5 °F 29.98 in WSW 1.3 mph 1.3 mph 37% 0.00 in 0.0 W/m2 CLR
15:22 65.1 °F 38.2 °F 29.98 in SSE 7.2 mph 7.2 mph 37% 0.00 in 0.0 W/m2 CLR
15:27 65.5 °F 38.5 °F 29.98 in SE 4.4 mph 6.9 mph 37% 0.00 in 0.0 W/m2 CLR
15:32 65.8 °F 39.5 °F 29.98 in SSE 3.2 mph 4.6 mph 38% 0.00 in 0.0 W/m2 CLR
15:37 66.0 °F 39.0 °F 29.97 in SSE 2.5 mph 4.6 mph 37% 0.00 in 0.0 W/m2 CLR
15:42 66.0 °F 38.3 °F 29.97 in SSE 6.0 mph 6.0 mph 36% 0.00 in 0.0 W/m2 CLR
15:47 65.3 °F 37.6 °F 29.97 in Calm     36% 0.02 in 0.0 W/m2 RA
15:52 64.9 °F 38.0 °F 29.97 in Calm     37% 0.02 in 0.0 W/m2 RA
15:57 65.1 °F 38.2 °F 29.98 in Calm     37% 0.06 in 0.0 W/m2 RA
16:02 65.1 °F 38.2 °F 29.98 in SW 0.3 mph 6.9 mph 37% 0.06 in 0.0 W/m2 RA
16:07 64.9 °F 38.0 °F 29.98 in Calm     37% 0.06 in 0.0 W/m2 RA
16:12 64.8 °F 38.5 °F 29.98 in Calm     38% 0.06 in 0.0 W/m2 RA
16:17 64.8 °F 38.5 °F 29.98 in Calm     38% 0.06 in 0.0 W/m2 RA
16:22 64.8 °F 38.5 °F 29.98 in Calm   2.5 mph 38% 0.06 in 0.0 W/m2 RA
16:27 64.8 °F 38.5 °F 29.98 in Calm     38% 0.06 in 0.0 W/m2 CLR
16:32 64.9 °F 38.7 °F 29.97 in Calm     38% 0.06 in 0.0 W/m2 CLR
16:37 65.1 °F 38.9 °F 29.98 in SE 6.7 mph 8.1 mph 38% 0.06 in 0.0 W/m2 CLR
16:42 65.5 °F 39.2 °F 29.98 in Calm     38% 0.06 in 0.0 W/m2 CLR
16:47 65.5 °F 38.5 °F 29.98 in Calm     37% 0.04 in 0.0 W/m2 CLR
16:52 65.3 °F 38.3 °F 29.98 in Calm     37% 0.04 in 0.0 W/m2 CLR
16:57 65.3 °F 38.3 °F 29.98 in SSE 0.3 mph 5.8 mph 37% 0.00 in 0.0 W/m2 CLR
17:02 65.1 °F 38.2 °F 29.98 in Calm     37% 0.00 in 0.0 W/m2 FEW
17:07 65.1 °F 38.2 °F 29.98 in Calm     37% 0.00 in 0.0 W/m2 FEW
17:12 64.9 °F 38.0 °F 29.98 in Calm     37% 0.00 in 0.0 W/m2 FEW
17:17 64.8 °F 37.9 °F 29.98 in Calm     37% 0.00 in 0.0 W/m2 FEW
17:22 64.6 °F 38.4 °F 29.99 in Calm     38% 0.00 in 0.0 W/m2 FEW
17:27 64.6 °F 38.4 °F 29.98 in Calm     38% 0.00 in 0.0 W/m2 FEW
17:32 64.0 °F 37.9 °F 29.99 in Calm     38% 0.00 in 0.0 W/m2 FEW
17:37 63.9 °F 38.4 °F 29.99 in Calm     39% 0.00 in 0.0 W/m2 FEW
17:42 63.1 °F 38.4 °F 29.99 in Calm     40% 0.00 in 0.0 W/m2 FEW
17:47 62.6 °F 38.6 °F 29.99 in Calm     41% 0.00 in 0.0 W/m2 FEW
17:52 62.1 °F 38.7 °F 29.99 in Calm     42% 0.00 in 0.0 W/m2 FEW
17:57 61.5 °F 38.8 °F 30.00 in SE 1.8 mph 6.0 mph 43% 0.00 in 0.0 W/m2 FEW
18:02 61.0 °F 39.5 °F 30.00 in SE 1.6 mph 2.3 mph 45% 0.00 in 0.0 W/m2 SCT
18:07 60.6 °F 39.7 °F 30.00 in SE 5.1 mph 5.1 mph 46% 0.00 in 0.0 W/m2 SCT
18:12 60.1 °F 40.3 °F 30.00 in Calm     48% 0.00 in 0.0 W/m2 SCT
18:17 59.7 °F 40.5 °F 30.01 in Calm     49% 0.00 in 0.0 W/m2 SCT
18:22 59.5 °F 40.3 °F 30.00 in East 5.1 mph 5.1 mph 49% 0.00 in 0.0 W/m2 SCT
18:27 58.8 °F 40.7 °F 30.00 in NNE 5.2 mph 5.8 mph 51% 0.00 in 0.0 W/m2 SCT
18:32 58.6 °F 40.6 °F 30.00 in Calm     51% 0.00 in 0.0 W/m2 SCT
18:37 58.3 °F 40.7 °F 30.01 in ESE 1.3 mph   52% 0.00 in 0.0 W/m2 SCT
18:42 58.1 °F 41.0 °F 30.01 in Calm     53% 0.00 in 0.0 W/m2 SCT
18:47 57.9 °F 40.9 °F 30.01 in Calm     53% 0.00 in 0.0 W/m2 SCT
18:52 57.7 °F 41.2 °F 30.01 in Calm     54% 0.00 in 0.0 W/m2 SCT
18:57 57.6 °F 41.0 °F 30.02 in Calm     54% 0.00 in 0.0 W/m2 SCT
19:02 57.4 °F 40.9 °F 30.02 in SSE 1.1 mph   54% 0.00 in 0.0 W/m2 SCT
19:07 57.4 °F 41.3 °F 30.01 in SW 5.1 mph 6.9 mph 55% 0.00 in 0.0 W/m2 SCT
19:12 57.0 °F 41.0 °F 30.02 in Calm     55% 0.00 in 0.0 W/m2 SCT
19:17 56.8 °F 41.3 °F 30.02 in Calm     56% 0.00 in 0.0 W/m2 SCT
19:22 56.5 °F 41.9 °F 30.02 in SSE 5.8 mph 5.8 mph 58% 0.00 in 0.0 W/m2 SCT
19:27 56.3 °F 41.7 °F 30.02 in SSE 1.5 mph 2.3 mph 58% 0.00 in 0.0 W/m2 SCT
19:32 56.1 °F 41.5 °F 30.02 in Calm     58% 0.00 in 0.0 W/m2 SCT
19:37 56.1 °F 42.0 °F 30.02 in South 1.7 mph 6.0 mph 59% 0.00 in 0.0 W/m2 SCT
19:42 56.1 °F 42.0 °F 30.02 in SE 1.1 mph 3.5 mph 59% 0.00 in 0.0 W/m2 SCT
19:47 56.1 °F 42.0 °F 30.03 in South 6.9 mph 8.1 mph 59% 0.00 in 0.0 W/m2 SCT
19:52 56.1 °F 42.0 °F 30.03 in SSE 1.6 mph 1.6 mph 59% 0.00 in 0.0 W/m2 SCT
19:57 55.9 °F 41.8 °F 30.03 in SE 1.0 mph 1.2 mph 59% 0.00 in 0.0 W/m2 SCT
20:02 55.6 °F 41.9 °F 30.04 in Calm     60% 0.00 in 0.0 W/m2 CLR
20:07 55.6 °F 42.3 °F 30.04 in Calm     61% 0.00 in 0.0 W/m2 CLR
20:12 55.4 °F 42.2 °F 30.04 in SW 6.0 mph 6.0 mph 61% 0.00 in 0.0 W/m2 CLR
20:18 55.4 °F 41.7 °F 30.04 in Calm     60% 0.00 in 0.0 W/m2 CLR
20:20 55.4 °F 41.7 °F 30.04 in Calm     60% 0.00 in 0.0 W/m2 CLR
20:21 55.4 °F 41.7 °F 30.04 in Calm     60% 0.00 in 0.0 W/m2 CLR
20:25 55.4 °F 41.7 °F 30.04 in Calm   1.2 mph 60% 0.00 in 0.0 W/m2 CLR
20:27 55.4 °F 41.7 °F 30.04 in SW 1.6 mph 1.6 mph 60% 0.00 in 0.0 W/m2 CLR
20:31 55.6 °F 41.9 °F 30.04 in Calm     60% 0.00 in 0.0 W/m2 CLR
20:36 55.6 °F 41.5 °F 30.04 in Calm     59% 0.00 in 0.0 W/m2 CLR
20:41 55.6 °F 41.5 °F 30.05 in Calm     59% 0.00 in 0.0 W/m2 CLR
20:46 55.6 °F 41.0 °F 30.05 in Calm     58% 0.00 in 0.0 W/m2 CLR
20:51 55.6 °F 41.0 °F 30.05 in SSE 4.2 mph 7.2 mph 58% 0.00 in 0.0 W/m2 CLR
20:56 55.6 °F 40.6 °F 30.05 in Calm     57% 0.00 in 0.0 W/m2 CLR
21:01 55.6 °F 40.6 °F 30.05 in ESE 2.9 mph 4.6 mph 57% 0.00 in 0.0 W/m2 FEW
21:06 55.6 °F 40.1 °F 30.05 in Calm     56% 0.00 in 0.0 W/m2 FEW
21:11 55.6 °F 40.1 °F 30.05 in SE 5.8 mph 5.8 mph 56% 0.00 in 0.0 W/m2 FEW
21:16 55.6 °F 40.1 °F 30.05 in Calm     56% 0.00 in 0.0 W/m2 FEW
21:21 55.4 °F 40.0 °F 30.05 in Calm     56% 0.00 in 0.0 W/m2 FEW
21:26 55.2 °F 39.8 °F 30.05 in Calm     56% 0.00 in 0.0 W/m2 FEW
21:31 55.2 °F 39.8 °F 30.05 in Calm     56% 0.00 in 0.0 W/m2 FEW
21:36 55.2 °F 39.8 °F 30.05 in Calm     56% 0.00 in 0.0 W/m2 FEW
21:41 55.2 °F 39.3 °F 30.05 in Calm     55% 0.00 in 0.0 W/m2 FEW
21:46 55.0 °F 39.2 °F 30.05 in SE 0.8 mph 2.7 mph 55% 0.00 in 0.0 W/m2 FEW
21:51 55.0 °F 39.2 °F 30.05 in SE 3.1 mph 3.5 mph 55% 0.00 in 0.0 W/m2 FEW
21:56 54.7 °F 38.8 °F 30.06 in SE 1.7 mph 2.3 mph 55% 0.00 in 0.0 W/m2 FEW
22:01 54.7 °F 38.8 °F 30.05 in SE 3.8 mph 3.8 mph 55% 0.00 in 0.0 W/m2 CLR
22:06 54.5 °F 38.7 °F 30.06 in Calm   3.5 mph 55% 0.00 in 0.0 W/m2 CLR
22:11 54.1 °F 38.3 °F 30.06 in Calm     55% 0.00 in 0.0 W/m2 CLR
22:16 54.0 °F 38.1 °F 30.06 in Calm     55% 0.00 in 0.0 W/m2 CLR
22:21 53.8 °F 38.0 °F 30.06 in Calm     55% 0.00 in 0.0 W/m2 CLR
22:26 53.6 °F 37.8 °F 30.06 in Calm     55% 0.00 in 0.0 W/m2 CLR
22:31 53.4 °F 37.6 °F 30.06 in Calm     55% 0.00 in 0.0 W/m2 CLR
22:36 53.2 °F 37.9 °F 30.06 in Calm     56% 0.00 in 0.0 W/m2 CLR
22:41 52.9 °F 37.6 °F 30.06 in Calm     56% 0.00 in 0.0 W/m2 CLR
22:46 52.5 °F 37.3 °F 30.06 in Calm     56% 0.00 in 0.0 W/m2 CLR
22:51 52.2 °F 37.4 °F 30.06 in Calm     57% 0.00 in 0.0 W/m2 CLR
22:56 51.8 °F 37.0 °F 30.06 in Calm     57% 0.00 in 0.0 W/m2 CLR
23:01 51.4 °F 37.1 °F 30.06 in SW 1.0 mph 5.8 mph 58% 0.00 in 0.0 W/m2 CLR
23:06 51.1 °F 36.8 °F 30.06 in Calm   1.2 mph 58% 0.00 in 0.0 W/m2 CLR
23:11 50.7 °F 36.9 °F 30.06 in Calm     59% 0.00 in 0.0 W/m2 CLR
23:16 50.9 °F 37.1 °F 30.06 in Calm     59% 0.00 in 0.0 W/m2 CLR
23:22 50.7 °F 36.9 °F 30.07 in Calm     59% 0.00 in 0.0 W/m2 CLR
23:27 51.1 °F 37.2 °F 30.07 in Calm     59% 0.00 in 0.0 W/m2 CLR
23:32 51.6 °F 37.3 °F 30.07 in Calm     58% 0.00 in 0.0 W/m2 CLR
23:37 51.6 °F 37.3 °F 30.07 in Calm     58% 0.00 in 0.0 W/m2 CLR
23:42 51.6 °F 37.3 °F 30.06 in Calm     58% 0.00 in 0.0 W/m2 CLR
23:47 51.4 °F 37.1 °F 30.06 in Calm     58% 0.00 in 0.0 W/m2 CLR
23:52 51.1 °F 36.8 °F 30.06 in Calm     58% 0.00 in 0.0 W/m2 CLR
23:57 51.1 °F 36.8 °F 30.06 in Calm     58% 0.00 in 0.0 W/m2 CLR
Fernwood Weather
Compliments of Weather Underground - 3.75 mb